This is the latest recevied weather packets stored in our database for station/object K7SKM. If no packets are shown the sender has not sent any weather packets the latest 10 day(s).
| Time | Temp. | Humidity | Pressure | Rain* | Wind** | Luminosity | Snow |
|---|---|---|---|---|---|---|---|
| 1777993415 | 13.89° C | 75% | 1020.3 hPa | 0 mm | - | 22 W/m² | - |
| 1777993109 | 13.89° C | 74% | 1020.6 hPa | 0 mm | - | 20 W/m² | - |
| 1777992808 | 13.89° C | 74% | 1020.3 hPa | 0 mm | - | 22 W/m² | - |
| 1777992505 | 13.33° C | 74% | 1020.3 hPa | 0 mm | - | 19 W/m² | - |
| 1777992203 | 13.33° C | 75% | 1020.3 hPa | 0 mm | - | 16 W/m² | - |
| 1777991900 | 13.33° C | 75% | 1020.3 hPa | 0 mm | - | 12 W/m² | - |
| 1777991598 | 13.33° C | 75% | 1020.2 hPa | 0 mm | - | 12 W/m² | - |
| 1777991294 | 13.33° C | 75% | 1020 hPa | 0 mm | - | 10 W/m² | - |
| 1777990992 | 13.33° C | 75% | 1020 hPa | 0 mm | - | 8 W/m² | - |
| 1777990689 | 13.33° C | 75% | 1020.1 hPa | 0 mm | - | 8 W/m² | - |
| 1777990386 | 13.33° C | 75% | 1020.1 hPa | 0 mm | - | 8 W/m² | - |
| 1777989779 | 13.33° C | 75% | 1019.9 hPa | 0 mm | - | 5 W/m² | - |
| 1777989476 | 13.33° C | 76% | 1019.9 hPa | 0 mm | - | 4 W/m² | - |
| 1777989172 | 13.33° C | 76% | 1019.7 hPa | 0 mm | - | 4 W/m² | - |
| 1777988868 | 13.33° C | 76% | 1019.7 hPa | 0 mm | - | 3 W/m² | - |
| 1777988566 | 13.33° C | 76% | 1019.6 hPa | 0 mm | - | 2 W/m² | - |
| 1777988262 | 13.33° C | 76% | 1019.5 hPa | 0 mm | - | 2 W/m² | - |
| 1777987959 | 13.33° C | 76% | 1019.7 hPa | 0 mm | - | 1 W/m² | - |
| 1777987655 | 13.33° C | 76% | 1019.5 hPa | 0 mm | - | 0 W/m² | - |
| 1777987352 | 13.33° C | 75% | 1019.4 hPa | 0 mm | - | 0 W/m² | - |
| 1777987049 | 13.33° C | 75% | 1019.4 hPa | 0 mm | - | 0 W/m² | - |
| 1777986746 | 13.33° C | 76% | 1019.3 hPa | 0 mm | - | 0 W/m² | - |
| 1777986444 | 13.33° C | 76% | 1019.2 hPa | 0 mm | - | 0 W/m² | - |
| 1777986143 | 13.33° C | 76% | 1019.2 hPa | 0 mm | - | 0 W/m² | - |
| 1777985839 | 13.33° C | 76% | 1019.2 hPa | 0 mm | - | 0 W/m² | - |
* Rain latest hour (hover to see other rain measurements)
** Current wind speed in m/s (hover to see current wind gust speed)